This demonstration page uses our WeatherBlox Daily Observations layout. Learn more.

Left ArrowRight Arrow

34.74481, -87.66753

Hourly Observations for October 7, 2019

Temp ( °F °C ) Dew Point ( °F °C ) Humidity (%) Winds ( mph kmh ) Pressure ( in mb ) Visibility ( mi km ) Precip ( " mm )
12:53 am 00:53 Cloudy 76 24.4 65 18.3 69 69 SSE 8 13 30.04 1017 10 16 0.00 0.00
1:53 am 01:53 Cloudy 76 24.4 65 18.3 69 69 S 9 15 30.04 1017 10 16 0.00 0.00
2:24 am 02:24 Cloudy with Nearby Thunderstorms 74 23.3 67 19.4 79 79 W 17 28 30.07 1018 10 16 0.00 0.00
2:34 am 02:34 Cloudy with Nearby Thunderstorms 70 21.1 64 17.8 82 82 WNW 15 24 30.09 1019 2 3 0.19 4.83
2:37 am 02:37 Cloudy with Strong Thunderstorms 69 20.6 64 17.8 84 84 VRB 7 11 30.08 1019 1 2 0.27 6.86
2:48 am 02:48 Cloudy with Strong Thunderstorms 68 20 64 18 88 88 WSW 9 15 30.08 1019 2 2 0.43 10.92
2:53 am 02:53 Cloudy with Strong Thunderstorms 68 20 65 18.3 90 90 SW 7 11 30.07 1018 2 3 0.46 11.68
2:57 am 02:57 Cloudy with Strong Thunderstorms 68 20 65 18.3 90 90 SW 8 13 30.08 1019 3 5 0.01 0.25
3:27 am 03:27 Cloudy with Rain 68 20 65 18.3 90 90 WNW 6 9 30.06 1018 7 11 0.07 1.78
3:35 am 03:35 Mostly Cloudy with Thunderstorms 68 20 65 18.3 90 90 WNW 3 6 30.06 1018 7 11 0.08 2.03
3:50 am 03:50 Mostly Cloudy with Rain 68 20 64 18 88 88 Calm 30.06 1018 7 11 0.10 2.54
3:53 am 03:53 Cloudy with Light Rain 68 20 66 18.9 93 93 Calm 30.05 1018 8 13 0.10 2.54
4:22 am 04:22 Cloudy with Rain 68 20 66 18.9 93 93 SSE 8 13 30.06 1018 8 13 0.06 1.52
4:48 am 04:48 Cloudy 68 20 66 19 94 94 ESE 5 7 30.06 1018 10 16 0.06 1.52
4:53 am 04:53 Cloudy 68 20 66 18.9 93 93 Calm 30.06 1018 10 16 0.06 1.52
5:53 am 05:53 Mostly Cloudy with Rain 68 20 66 18.9 93 93 SSW 3 6 30.09 1019 6 10 0.06 1.52
6:03 am 06:03 Mostly Cloudy with Rain 68 20 66 18.9 93 93 S 3 6 30.10 1019 8 13 0.01 0.25
6:53 am 06:53 Cloudy with Rain 68 20 65 18.3 90 90 SE 6 9 30.09 1019 9 14 0.08 2.03
7:53 am 07:53 Partly Cloudy 67 19.4 65 18.3 93 93 SE 7 11 30.08 1019 10 16 0.11 2.79
8:53 am 08:53 Mostly Cloudy with Light Rain 67 19.4 65 18.3 93 93 S 3 6 30.11 1020 10 16 0.05 1.27
9:53 am 09:53 Cloudy with Light Rain 68 20 65 18.3 90 90 NNE 5 7 30.09 1019 9 14 0.05 1.27
10:35 am 10:35 Mostly Cloudy 69 20.6 65 18.3 87 87 NW 5 7 30.12 1020 10 16 0.01 0.25
10:53 am 10:53 Mostly Cloudy with Light Rain 69 20.6 64 17.8 84 84 Calm 30.12 1020 10 16 0.01 0.25
11:53 am 11:53 Cloudy 70 21.1 64 17.8 82 82 SSE 7 11 30.09 1019 10 16 0.01 0.25
12:06 pm 12:06 Cloudy 70 21.1 66 18.9 87 87 ESE 6 9 30.09 1019 10 16 0.00 0.00
12:21 pm 12:21 Cloudy 69 20.6 65 18.3 87 87 SE 6 9 30.08 1019 10 16 0.00 0.00
12:53 pm 12:53 Cloudy 70 21.1 65 18.3 84 84 ENE 5 7 30.07 1018 10 16 0.00 0.00
1:23 pm 13:23 Cloudy with Light Rain 67 19.4 62 16.7 84 84 N 12 19 30.10 1019 7 11 0.01 0.25
1:28 pm 13:28 Cloudy with Rain 65 18.3 62 16.7 90 90 N 10 17 30.10 1019 3 4 0.02 0.51
1:53 pm 13:53 Cloudy with Light Rain 65 18.3 62 16.7 90 90 NNE 7 11 30.09 1019 3 4 0.04 1.02
1:59 pm 13:59 Cloudy with Light Rain 64 17.8 61 16.1 90 90 NNE 8 13 30.09 1019 3 5 0.00 0.00
2:11 pm 14:11 Cloudy with Mist and Fog 65 18.3 61 16.1 87 87 N 9 15 30.09 1019 4 6 0.00 0.00
2:53 pm 14:53 Cloudy 65 18.3 61 16.1 87 87 N 6 9 30.09 1019 10 16 0.00 0.00
3:53 pm 15:53 Cloudy with Mist and Fog 64 17.8 60 15.6 87 87 N 9 15 30.09 1019 6 10 0.01 0.25
4:17 pm 16:17 Cloudy 64 17.8 60 15.6 87 87 N 8 13 30.10 1019 8 13 0.00 0.00
4:42 pm 16:42 Cloudy 64 17.8 60 15.6 87 87 NNE 10 17 30.10 1019 10 16 0.00 0.00
4:53 pm 16:53 Cloudy with Mist and Fog 64 17.8 60 15.6 87 87 NNE 7 11 30.09 1019 5 8 0.00 0.00
5:22 pm 17:22 Cloudy with Light Rain 63 17.2 60 15.6 90 90 N 9 15 30.10 1019 3 4 0.00 0.00
5:34 pm 17:34 Cloudy with Mist and Fog 63 17.2 60 15.6 90 90 NNE 7 11 30.10 1019 5 8 0.00 0.00
5:42 pm 17:42 Cloudy with Mist and Fog 63 17.2 60 15.6 90 90 N 8 13 30.10 1019 4 6 0.00 0.00
5:53 pm 17:53 Cloudy with Mist and Fog 63 17.2 59 15 87 87 NNE 7 11 30.10 1019 4 6 0.00 0.00
6:07 pm 18:07 Cloudy 63 17.2 59 15 87 87 N 6 9 30.10 1019 10 16 0.00 0.00
6:53 pm 18:53 Cloudy 62 16.7 58 14.4 86 86 NNE 6 9 30.10 1019 10 16 0.00 0.00
7:53 pm 19:53 Cloudy 62 16.7 58 14.4 86 86 NNE 7 11 30.11 1020 10 16 0.00 0.00
8:53 pm 20:53 Cloudy 62 16.7 58 14.4 86 86 NE 8 13 30.12 1020 10 16 0.00 0.00
9:53 pm 21:53 Cloudy 62 16.7 57 13.9 84 84 NE 10 17 30.13 1020 10 16 0.00 0.00
10:53 pm 22:53 Cloudy 62 16.7 56 13.3 80 80 ENE 8 13 30.12 1020 10 16 0.00 0.00
11:53 pm 23:53 Cloudy 62 16.7 57 13.9 84 84 NE 9 15 30.11 1020 10 16 0.00 0.00

Powered by AerisWeather